Вернуться в каталог

CAPELLA-16

ACADIA

АктивенНаукаSSO
NORAD 65318·PAYLOAD·🇺🇸 United States

Запущен Aug 26, 2025 с Vandenberg Space Force Base

Loading…

Ближайшие Пролёты (ближайшие 24 часа)

TLE

СвежийSource: Space-Track

Эпоха: Sep 14, 2026, 14:58 UTC

1 65318U 25188D   26257.62384967  .00005162  00000-0  48179-3 0  9990
2 65318  97.7319 331.4487 0002605 310.0899  50.0092 14.94618057 57276

Отслеживайте CAPELLA-16 в реальном времени с AllMySat

Download on the App Store